星链-35704(STARLINK-35704)

导读 | 豆包AI

STARLINK-35704是美国SpaceX公司星链(Starlink)项目的卫星,于2025年10月28日发射,属于星链低轨卫星互联网星座的组成部分。星链项目旨在为全球偏远地区、海洋、航空等场景提供高速低延迟宽带服务,该卫星入轨后将拓展星座覆盖范围,支撑服务向更多区域普及,助力星链全球互联网接入网络的构建,推动卫星互联网在多场景的应用落地。

基本信息
目录编号:
66221
目录名称:
STARLINK-35704
国际标识:
2025-244R
轨道中心:
EARTH
卫星名称:
星链-35704
卫星全名:
星链-35704(STARLINK-35704)
卫星状态:
在轨 (已飞行209 天)
发射日期:
2025-10-28 UTC
国别 :
美国 (US)
星等 :
--
轨道信息
数据来源 国际轨道数据
星历时间: 2026-05-25T00:24:46+0800
20小时前
查看轨道信息
半长轴: 6853.343km
偏心率: 0.0001239
轨道倾角: 53.157°
近地点辐角 73.133°
升交点赤经 236.991°
平近点角 286.980°
近地点: 474.356km
远地点: 476.056km
周期: 94.105分钟
每日圈数: 15.302033
详细信息
固有亮度:
5
最大亮度:
2.5
卫星平台:
Starlink V1.0
覆盖范围:
全球
运营商:
太空探索技术公司
运营商所在国:
美国
制造商(研发单位):
太空探索技术公司
制造商所在国:
美国
使用方式:
暂无
卫星简介
Starlink 计划是 SpaceX 推出的全球卫星互联网项目,通过发射低轨道卫星,为全球尤其是偏远地区提供高速、低延迟的互联网服务。自 2019 年起,Starlink 已部署数千颗卫星,旨在缩小全球数字鸿沟,推动互联网普及。该项目还为军事、航空等行业提供通信支持,带来广泛经济效益。
2D轨道图
3D轨道图
轨道高度分析图
轨道倾角分析图
轨道综合分析图
查看轨道综合分析图